Regional Weather Roundup
Issued by NWS

Home | Current Version | Previous Version | Text Only | Print | Product List | Glossary On
Versions: 1 2 3 4 5 6 7 8 9 10 11 12 13 14 15 16 17 18 19 20 21 22 23 24 25 26 27 28 29 30 31 32 33 34 35 36 37 38 39 40 41 42 43 44 45 46 47 48 49 50
162
ASUS44 KOUN 300510
RWROK

WEATHER ROUNDUP FOR OKLAHOMA
NATIONAL WEATHER SERVICE NORMAN OK
1200 AM CDT MON MAY 30 2016

NOTE: "FAIR" INDICATES FEW OR NO CLOUDS BELOW 12,000 FEET WITH NO
      SIGNIFICANT WEATHER AND/OR OBSTRUCTIONS TO VISIBILITY.

OKZ001>007-009>012-014-015-017-300600-
NORTHWEST OKLAHOMA AND THE PANHANDLE

CITY           SKY/WX    TMP DP  RH WIND       PRES   REMARKS
GAGE           PTCLDY    57  52  83 W9        30.08F
GUYMON         CLOUDY    58  49  72 SW8       30.08F
ENID/WOODRING  MOCLDY    68  63  83 E8        30.05F HAZE
$$

OKZ016-021>023-033>039-044-045-300600-
SOUTHWEST OKLAHOMA

CITY           SKY/WX    TMP DP  RH WIND       PRES   REMARKS
LAWTON/REGL    CLOUDY    67  61  81 E5        30.01F
LAWTON/FT SILL CLOUDY    68  59  73 W2        30.01F
CLINTON        CLOUDY    65  54  67 S6        30.06R
HOBART         CLOUDY    65  58  78 SW8       30.02F
ALTUS AFB      CLOUDY    63  60  90 S10       30.03F
$$

OKZ018>020-024>031-300600-
CENTRAL OKLAHOMA

CITY           SKY/WX    TMP DP  RH WIND       PRES   REMARKS
OKLAHOMA CITY  CLOUDY    68  61  78 NE7       30.06F
OKC/WILEY POST MOCLDY    66  61  84 E5        30.07F
OKC/TINKER AFB TSTM      66  63  88 N10G30    30.06F
STILLWATER     LGT RAIN  67  63  87 W5        30.06R
GUTHRIE        LGT RAIN  64  61  90 VRB5      30.10S FOG
$$

OKZ008-013-054>072-300600-
NORTHEAST OKLAHOMA

CITY           SKY/WX    TMP DP  RH WIND       PRES   REMARKS
TULSA          CLOUDY    70  62  76 S5        30.05S
TULSA/JONES    CLOUDY    70  61  73 SW5       30.05F
PONCA CITY     CLOUDY    72  62  71 SE8       30.06R
BARTLESVILLE   CLOUDY    63  62  97 CALM      30.08R
MUSKOGEE       MOCLDY    69  64  84 S5        30.07S
$$

OKZ032-040>043-046>053-073>077-300600-
SOUTH CENTRAL/SOUTHEAST OKLAHOMA

CITY           SKY/WX    TMP DP  RH WIND       PRES   REMARKS
ARDMORE/DWNTWN CLOUDY    72  66  83 CALM      30.05F
MCALESTER      CLOUDY    73  68  84 SE3       30.07S
$$





USA.gov is the U.S. government's official web portal to all federal, state and local government web resources and services.